Regional Weather Roundup
Issued by NWS Cleveland, OH

Home | Current Version | Previous Version | Text Only | Print | Product List | Glossary Off
Versions: 1 2 3 4 5 6 7 8 9 10 11 12 13 14 15 16 17 18 19 20 21 22 23 24 25 26 27 28 29 30 31 32 33 34 35 36 37 38 39 40 41 42 43 44 45 46 47 48 49 50

000
ASUS41 KCLE 292310
RWRCLE
OHIO REGIONAL WEATHER ROUNDUP
NATIONAL WEATHER SERVICE CLEVELAND, OH
700 PM EDT FRI MAY 29 2015

NOTE: "FAIR" INDICATES FEW OR NO CLOUDS BELOW 12,000 FEET WITH NO
SIGNIFICANT WEATHER AND/OR OBSTRUCTIONS TO VISIBILITY.

OHZ001>008-015>018-024>027-034-035-043-044-300000-
   NORTHWEST OHIO

CITY           SKY/WX    TMP DP  RH WIND       PRES   REMARKS
DEFIANCE       MOSUNNY   84  64  50 S13       29.99F
FINDLAY        MOSUNNY   82  66  58 SW17      30.02F
TOLEDO EXPRESS PTSUNNY   82  65  56 SW12      29.99F
TOLEDO EXEC    MOSUNNY   82  66  58 S13       30.00F
LIMA           MOSUNNY   82  63  52 S17       30.03F
$$

OHZ009>014-019>023-028>033-038-089-300000-
   NORTHEAST OHIO

CITY           SKY/WX    TMP DP  RH WIND       PRES   REMARKS
CLE-HOPKINS    MOSUNNY   83  64  52 S10       30.05F
CLE-LAKEFRONT  PTSUNNY   76  67  73 NE5       30.03F
CUY CO. ARPT   PTSUNNY   82  72  69 NE5       30.06F
LORAIN-ELYRIA  MOSUNNY   83  64  52 SW12      30.04F
ASHTABULA      MOSUNNY   75  65  70 NW7       30.08S
AKRON-CANTON   PTSUNNY   83  64  52 S12       30.08F
WOOSTER        MOSUNNY   81  64  56 SW15      30.08F
MANSFIELD      MOSUNNY   81  64  56 S14       30.07F
YOUNGSTOWN     PTSUNNY   81  62  52 SW10      30.08F
$$

OHZ042-051>053-060>062-070>072-077>081-300000-
  SOUTHWEST OHIO

CITY           SKY/WX    TMP DP  RH WIND       PRES   REMARKS
CINC-COVINGTON PTSUNNY   78  67  68 SW3       30.06F
CINC-LUNKEN    MOSUNNY   79  65  62 S10       30.05F
HAMILTON       SUNNY     82  64  54 SW6       30.05F
DAYTON         PTSUNNY   83  64  52 S12       30.06F
WRIGHT-PAT AFB MOSUNNY   83  65  53 S15       30.05F
DAYTON GENERAL PTSUNNY   81  65  58 S14       30.05F
WILMINGTON     SUNNY     81  63  54 S15       30.07F
$$

OHZ036-037-039>041-045>050-054>059-063>069-073>076-082>088-300000-
  CENTRAL AND SOUTHEAST OHIO

CITY           SKY/WX    TMP DP  RH WIND       PRES   REMARKS
COLUMBUS       PTSUNNY   82  65  56 S9        30.07S
OSU AIRPORT    MOSUNNY   82  62  50 S15       30.06F
BOLTON FIELD   SUNNY     84  64  51 S14       30.07F
RICKENBACK AFB PTSUNNY   80  66  61 S16       30.07S
NEWARK         MOSUNNY   82  65  56 VRB7      30.08F
MARION         MOSUNNY   84  61  45 SW15      30.05F
LANCASTER      PTSUNNY   81  65  58 S10       30.09F
ZANESVILLE     NOT AVBL
NEW PHILLY     MOSUNNY   84  65  52 SW5       30.10S
$$


USA.gov is the U.S. government's official web portal to all federal, state and local government web resources and services.